Location: Balsareny
(41.8670°N, 1.8830°E)
Time: 14:08:21
(UTC+02:00)

Envisat - Pass Details

Date: 14 August 2024
Orbit: 762 x 764 km, 98.3° (Epoch: 16 September)

Event Time Altitude Azimuth Distance (km) Brightness Sun altitude
Rises 04:38:23 0° 19° (NNE) 3,235 7.3 -22.7°
Reaches altitude 10° 04:40:47 10° 25° (NNE) 2,305 6.5 -22.4°
Maximum altitude 04:45:41 47° 99° (E) 998 3.8 -21.8°
Enters shadow 04:48:37 22° 163° (SSE) 1,600 4.4 -21.4°
